Baraboo, WI

12:08 PM CST on December 05, 2019 (GMT -0600)
Baraboo Wisconsin Dells

Weather History for KDLL - November, 2019

Change the Weather History Date:

Thursday, November 14, 2019

  Actual Average Record
Temperature  
Mean Temperature 23 °F -  
Max Temperature 26 °F 43 °F 70 °F (1971)
Min Temperature 20 °F 23 °F -3 °F (1959)
Degree Days  
Heating Degree Days 42    
Moisture  
Dew Point 18 °F    
Average Humidity 82    
Maximum Humidity 96    
Minimum Humidity 70    
Precipitation  
Precipitation 0.00 in - - ()
Sea Level Pressure  
Sea Level Pressure 30.18 in    
Wind  
Wind Speed 5 mph ()    
Max Wind Speed 12 mph    
Max Gust Speed 16 mph    
Visibility 10.0 miles    
Events Snow    
Averages and records for this station are not official NWS values.
T = Trace of Precipitation, MM = Missing Value Source: Averaged Metar Reports

Daily Weather History Graph

Daily Weather History Graph

Search for Another Location

Airport or City:

Astronomy

Nov. 14, 2019 Rise Set
Actual Time 6:51 AM CST 4:35 PM CST
Civil Twilight 6:20 AM CST 5:06 PM CST
Nautical Twilight 5:45 AM CST 5:40 PM CST
Astronomical Twilight 5:12 AM CST 6:14 PM CST
Moon 6:18 PM CST (11/14) 8:48 AM CST (11/14)
Length of Visible Light 10h 45m
Length of Day
9h 43m
Waning Gibbous, 95% of the Moon is Illuminated
Nov 14
Waning Gibbous
Nov 19
Last Quarter
Nov 26
New
Dec 4
First Quarter
Dec 11
Full

Hourly Weather History & Observations

Time (CST) Temp. Windchill Dew Point Humidity Pressure Visibility Wind Dir Wind Speed Gust Speed Precip Events Conditions
12:15 AM 20.8 °F 16.0 °F 19.2 °F 93% 30.05 in 10.0 mi WNW 3.5 mph - N/A   Overcast
12:35 AM 20.8 °F - 19.0 °F 93% 30.05 in 10.0 mi Calm Calm - N/A   Overcast
1:15 AM 20.8 °F - 19.2 °F 93% 30.06 in 10.0 mi Calm Calm - N/A   Overcast
1:35 AM 20.8 °F - 19.4 °F 94% 30.07 in 10.0 mi Calm Calm - N/A   Overcast
1:55 AM 21.0 °F - 19.8 °F 95% 30.07 in 10.0 mi Calm Calm - N/A   Overcast
2:15 AM 21.2 °F - 20.1 °F 96% 30.07 in 10.0 mi Calm Calm - N/A   Overcast
2:35 AM 21.2 °F 16.4 °F 20.3 °F 96% 30.07 in 10.0 mi WNW 3.5 mph - N/A   Overcast
2:55 AM 21.4 °F 16.6 °F 20.5 °F 96% 30.08 in 10.0 mi NW 3.5 mph - N/A   Overcast
3:15 AM 21.6 °F 16.8 °F 20.7 °F 96% 30.09 in 10.0 mi NNW 3.5 mph - N/A   Overcast
3:35 AM 21.7 °F 17.0 °F 20.7 °F 96% 30.09 in 10.0 mi NW 3.5 mph - N/A   Overcast
3:55 AM 21.7 °F 15.5 °F 20.3 °F 94% 30.10 in 10.0 mi NNW 4.6 mph - N/A   Overcast
4:15 AM 21.9 °F 17.2 °F 20.1 °F 93% 30.10 in 10.0 mi NNW 3.5 mph - N/A   Overcast
4:35 AM 21.9 °F 15.7 °F 19.9 °F 92% 30.11 in 10.0 mi NNW 4.6 mph - N/A   Overcast
4:55 AM 21.9 °F 15.7 °F 19.8 °F 91% 30.12 in 10.0 mi NNW 4.6 mph - N/A   Overcast
5:15 AM 21.9 °F 15.7 °F 19.4 °F 90% 30.12 in 10.0 mi NNW 4.6 mph - N/A   Overcast
5:35 AM 21.9 °F 15.7 °F 19.4 °F 90% 30.13 in 10.0 mi NNW 4.6 mph - N/A   Overcast
5:55 AM 21.7 °F 15.5 °F 18.9 °F 89% 30.13 in 10.0 mi NW 4.6 mph - N/A   Overcast
6:15 AM 21.7 °F 15.5 °F 18.0 °F 85% 30.14 in 10.0 mi NW 4.6 mph - N/A   Overcast
6:35 AM 21.7 °F 14.3 °F 16.2 °F 79% 30.16 in 10.0 mi NNW 5.8 mph - N/A   Overcast
6:55 AM 21.2 °F 11.7 °F 14.7 °F 76% 30.17 in 10.0 mi NNW 8.1 mph - N/A   Overcast
7:15 AM 21.2 °F 11.7 °F 14.5 °F 75% 30.17 in 10.0 mi NW 8.1 mph - N/A   Overcast
7:35 AM 21.2 °F 14.9 °F 14.9 °F 77% 30.19 in 10.0 mi NW 4.6 mph - N/A   Overcast
7:55 AM 21.4 °F 13.8 °F 15.4 °F 78% 30.19 in 10.0 mi NNW 5.8 mph - N/A   Overcast
8:15 AM 21.4 °F 11.9 °F 15.8 °F 79% 30.20 in 10.0 mi NW 8.1 mph - N/A   Overcast
8:35 AM 21.2 °F 10.1 °F 14.7 °F 76% 30.21 in 10.0 mi WNW 10.4 mph - N/A   Overcast
8:55 AM 21.6 °F 14.0 °F 14.4 °F 74% 30.21 in 10.0 mi NNW 5.8 mph - N/A   Overcast
9:15 AM 21.7 °F 15.5 °F 14.4 °F 73% 30.21 in 10.0 mi NW 4.6 mph - N/A Snow Light Snow
9:35 AM 21.9 °F 13.4 °F 14.0 °F 72% 30.22 in 10.0 mi NW 6.9 mph - N/A   Overcast
9:55 AM 22.1 °F 12.8 °F 13.8 °F 70% 30.22 in 10.0 mi NW 8.1 mph - N/A   Overcast
10:15 AM 22.5 °F 14.1 °F 14.5 °F 72% 30.23 in 10.0 mi West 6.9 mph - N/A   Overcast
10:35 AM 22.5 °F 14.1 °F 14.4 °F 71% 30.23 in 10.0 mi WNW 6.9 mph - N/A   Overcast
11:15 AM 22.8 °F 14.5 °F 15.6 °F 74% 30.23 in 10.0 mi West 6.9 mph - N/A   Overcast
11:35 AM 22.8 °F 14.5 °F 16.3 °F 76% 30.23 in 10.0 mi West 6.9 mph - N/A   Overcast
11:55 AM 23.2 °F 15.0 °F 17.2 °F 78% 30.22 in 10.0 mi West 6.9 mph - N/A   Overcast
12:15 PM 23.5 °F 13.7 °F 17.4 °F 77% 30.21 in 10.0 mi West 9.2 mph - N/A   Overcast
12:35 PM 23.9 °F 13.5 °F 17.1 °F 75% 30.21 in 10.0 mi WSW 10.4 mph - N/A   Overcast
12:55 PM 23.9 °F 15.0 °F 17.1 °F 75% 30.21 in 10.0 mi West 8.1 mph - N/A   Overcast
1:15 PM 24.4 °F 14.9 °F 17.4 °F 75% 30.20 in 10.0 mi WSW 9.2 mph - N/A   Overcast
1:35 PM 25.0 °F 16.3 °F 17.6 °F 74% 30.19 in 10.0 mi West 8.1 mph - N/A   Overcast
1:55 PM 25.3 °F 15.3 °F 17.8 °F 73% 30.19 in 10.0 mi WSW 10.4 mph - N/A   Overcast
2:15 PM 25.3 °F 16.0 °F 17.6 °F 72% 30.20 in 10.0 mi WSW 9.2 mph - N/A   Overcast
2:35 PM 25.7 °F 15.7 °F 18.3 °F 74% 30.20 in 10.0 mi West 10.4 mph 16.1 mph N/A   Overcast
2:55 PM 26.6 °F 16.8 °F 18.7 °F 72% 30.20 in 10.0 mi WSW 10.4 mph - N/A   Overcast
3:15 PM 26.4 °F 16.0 °F 18.5 °F 72% 30.21 in 10.0 mi West 11.5 mph - N/A   Overcast
3:55 PM 25.7 °F 17.1 °F 18.5 °F 74% 30.21 in 10.0 mi West 8.1 mph - N/A   Clear
4:15 PM 25.3 °F 17.6 °F 18.5 °F 75% 30.21 in 10.0 mi WSW 6.9 mph - N/A   Clear
4:35 PM 24.4 °F 15.6 °F 17.6 °F 75% 30.21 in 10.0 mi WSW 8.1 mph - N/A   Clear
4:55 PM 23.7 °F 14.7 °F 17.4 °F 77% 30.21 in 10.0 mi WSW 8.1 mph - N/A   Clear
5:15 PM 22.6 °F 14.3 °F 16.9 °F 79% 30.21 in 10.0 mi SW 6.9 mph - N/A   Clear
5:35 PM 22.1 °F 12.8 °F 16.7 °F 80% 30.21 in 10.0 mi SW 8.1 mph - N/A   Clear
6:15 PM 22.1 °F 12.8 °F 16.9 °F 80% 30.20 in 10.0 mi SW 8.1 mph - N/A   Clear
6:35 PM 22.1 °F 13.7 °F 17.1 °F 81% 30.20 in 10.0 mi SW 6.9 mph - N/A   Clear
6:55 PM 22.1 °F 11.3 °F 17.2 °F 82% 30.20 in 10.0 mi SW 10.4 mph - N/A   Clear
7:15 PM 22.1 °F 10.6 °F 17.6 °F 83% 30.19 in 10.0 mi SW 11.5 mph - N/A   Clear
7:35 PM 22.1 °F 12.8 °F 17.6 °F 83% 30.20 in 10.0 mi SW 8.1 mph - N/A   Clear
7:55 PM 21.7 °F 12.3 °F 17.4 °F 83% 30.20 in 10.0 mi SW 8.1 mph - N/A   Clear
8:15 PM 21.6 °F 12.1 °F 17.4 °F 84% 30.19 in 10.0 mi SW 8.1 mph - N/A   Clear
8:55 PM 21.7 °F 12.3 °F 17.4 °F 83% 30.22 in 10.0 mi WSW 8.1 mph - N/A   Clear
9:15 PM 21.9 °F 11.7 °F 17.4 °F 83% 30.21 in 10.0 mi WSW 9.2 mph - N/A   Clear
9:35 PM 21.9 °F 11.0 °F 17.6 °F 83% 30.21 in 10.0 mi SW 10.4 mph - N/A   Clear
9:55 PM 21.9 °F 11.7 °F 17.6 °F 83% 30.22 in 10.0 mi WSW 9.2 mph - N/A   Clear
10:15 PM 22.1 °F 13.7 °F 17.4 °F 82% 30.23 in 10.0 mi WSW 6.9 mph - N/A   Clear
10:35 PM 22.5 °F 13.2 °F 17.6 °F 82% 30.23 in 10.0 mi West 8.1 mph - N/A   Clear
10:55 PM 22.1 °F 12.0 °F 17.6 °F 83% 30.22 in 10.0 mi WSW 9.2 mph - N/A   Clear
11:15 PM 22.1 °F 12.8 °F 17.6 °F 83% 30.22 in 10.0 mi WSW 8.1 mph - N/A   Clear
11:35 PM 22.1 °F 12.8 °F 17.6 °F 83% 30.22 in 10.0 mi WSW 8.1 mph - N/A   Clear
11:55 PM 22.1 °F 12.0 °F 17.6 °F 83% 30.22 in 10.0 mi WSW 9.2 mph - N/A   Clear